Simultaneous Nadir Overpasses (SNOs) Predictions

Prediction of SNOs between GOES-16 and METOP-B Satellite Orbit:

Table of predicted SNOs for the next 14.0 days since TLE Epoch: 5/27/2023
Index Date Time (GOES-16) GOES-16 Lat,Lon METOP-B Lat,Lon Distance(km) Time Diff (sec)
1 05/28/2023 02:15:33 0.02, -75.20 0.77, -71.91 374.75 80
2 05/29/2023 14:37:04 -0.02, -75.21 0.27, -76.47 143.92 80
3 05/30/2023 14:13:45 -0.02, -75.22 -0.83, -71.48 425.81 80
4 06/01/2023 02:35:26 0.02, -75.23 -0.15, -76.09 97.22 80
5 06/02/2023 02:12:07 0.02, -75.24 0.95, -71.09 472.59 80
6 06/03/2023 14:33:38 -0.02, -75.25 0.08, -75.65 45.66 80
7 06/06/2023 02:29:20 0.03, -75.27 0.06, -75.27 3.18 80
8 06/08/2023 14:27:32 -0.04, -75.30 -0.14, -74.84 52.96 80
9 06/10/2023 02:49:12 0.04, -75.33 -0.88, -79.44 468.78 80
